When you browse on this site, cookies collect data to enhance your experience and personalize the content and advertising you see.
Visit our Privacy Policy to learn more. By continuing to use the site, you agree to this use of cookies and data.
  • In Sweden
  • List of Countries
  • For 7 days
  • Water Temperature
  • Satellite Maps
  • Weather Map
  • Weather Widgets
  • user-avatar
    Login

    Hourly Weather Lugansk

    Today, 20 April, Saturday

    Time Temperature Precipitation Wind Pressure Humidity
    00:00 -2°C° 0 mm 4 mps 752 mmHg 60%
    01:00 -1°C° 0 mm 3 mps 751 mmHg 62%
    02:00 -2°C° 0 mm 3 mps 751 mmHg 63%
    03:00 -2°C° 0 mm 3 mps 751 mmHg 62%
    04:00 -2°C° 0 mm 3 mps 751 mmHg 61%
    05:00 -2°C° 0 mm 4 mps 751 mmHg 61%
    06:00 -2°C° 0 mm 4 mps 751 mmHg 55%
    07:00 -1°C° 0 mm 4 mps 750 mmHg 50%
    08:00 0°C° 0 mm 5 mps 750 mmHg 44%
    09:00 +1°C° 0 mm 5 mps 750 mmHg 41%
    10:00 +2°C° 0 mm 5 mps 750 mmHg 38%
    11:00 +3°C° 0 mm 5 mps 750 mmHg 35%
    12:00 +4°C° 0 mm 4 mps 750 mmHg 33%
    13:00 +5°C° 0 mm 4 mps 750 mmHg 32%
    14:00 +7°C° 0 mm 3 mps 750 mmHg 31%
    15:00 +7°C° 0 mm 3 mps 750 mmHg 32%
    16:00 +7°C° 0 mm 3 mps 750 mmHg 34%
    17:00 +7°C° 0 mm 3 mps 750 mmHg 36%
    18:00 +5°C° 0 mm 3 mps 751 mmHg 40%
    19:00 +4°C° 0 mm 3 mps 751 mmHg 44%
    20:00 +4°C° 0 mm 3 mps 751 mmHg 48%
    21:00 +3°C° 0 mm 3 mps 752 mmHg 50%
    22:00 +2°C° 0 mm 3 mps 752 mmHg 51%
    23:00 +2°C° 0 mm 3 mps 752 mmHg 53%

    Tomorrow, 21 April, Sunday

    Time Temperature Precipitation Wind Pressure Humidity
    00:00 +1°C° 0 mm 3 mps 752 mmHg 54%
    01:00 0°C° 0 mm 3 mps 752 mmHg 55%
    02:00 0°C° 0 mm 3 mps 752 mmHg 57%
    03:00 0°C° 0 mm 3 mps 752 mmHg 57%
    04:00 0°C° 0 mm 3 mps 752 mmHg 58%
    05:00 -1°C° 0 mm 3 mps 753 mmHg 58%
    06:00 0°C° 0 mm 4 mps 753 mmHg 55%
    07:00 +3°C° 0 mm 4 mps 753 mmHg 51%
    08:00 +4°C° 0 mm 4 mps 753 mmHg 48%
    09:00 +5°C° 0 mm 5 mps 753 mmHg 46%
    10:00 +7°C° 0 mm 5 mps 754 mmHg 45%
    11:00 +8°C° 0 mm 5 mps 754 mmHg 43%
    12:00 +8°C° 0.1 mm 5 mps 754 mmHg 44%
    13:00 +8°C° 0.1 mm 5 mps 754 mmHg 44%
    14:00 +9°C° 0.1 mm 5 mps 754 mmHg 44%
    15:00 +8°C° 0.1 mm 5 mps 754 mmHg 44%
    16:00 +8°C° 0.1 mm 4 mps 754 mmHg 44%
    17:00 +8°C° 0.1 mm 4 mps 754 mmHg 44%
    18:00 +7°C° 0 mm 4 mps 754 mmHg 47%
    19:00 +5°C° 0 mm 3 mps 755 mmHg 51%
    20:00 +5°C° 0 mm 2 mps 755 mmHg 54%
    21:00 +4°C° 0 mm 2 mps 755 mmHg 56%
    22:00 +4°C° 0 mm 2 mps 755 mmHg 57%
    23:00 +3°C° 0 mm 2 mps 756 mmHg 59%

    Day after tomorrow, 22 April, Monday

    Time Temperature Precipitation Wind Pressure Humidity
    00:00 +3°C° 0 mm 2 mps 756 mmHg 60%
    01:00 +2°C° 0 mm 2 mps 756 mmHg 61%
    02:00 +3°C° 0 mm 1 mps 756 mmHg 63%
    03:00 +3°C° 0 mm 1 mps 756 mmHg 64%
    04:00 +2°C° 0 mm 1 mps 756 mmHg 64%
    05:00 +2°C° 0 mm 1 mps 756 mmHg 65%
    06:00 +4°C° 0 mm 1 mps 757 mmHg 59%
    07:00 +5°C° 0 mm 1 mps 757 mmHg 53%
    08:00 +7°C° 0 mm 1 mps 757 mmHg 47%
    09:00 +8°C° 0 mm 1 mps 757 mmHg 43%
    10:00 +9°C° 0 mm 1 mps 757 mmHg 39%
    11:00 +10°C° 0 mm 1 mps 757 mmHg 35%
    12:00 +10°C° 0 mm 1 mps 757 mmHg 34%
    13:00 +11°C° 0 mm 1 mps 757 mmHg 32%
    14:00 +11°C° 0 mm 1 mps 757 mmHg 31%
    15:00 +11°C° 0 mm 1 mps 756 mmHg 32%
    16:00 +11°C° 0 mm 1 mps 756 mmHg 32%
    17:00 +11°C° 0 mm 1 mps 756 mmHg 33%
    18:00 +11°C° 0 mm 1 mps 756 mmHg 37%
    19:00 +10°C° 0 mm 1 mps 756 mmHg 40%
    20:00 +9°C° 0 mm 1 mps 756 mmHg 44%
    21:00 +9°C° 0 mm 1 mps 756 mmHg 45%
    22:00 +8°C° 0 mm 1 mps 756 mmHg 46%
    23:00 +7°C° 0 mm 1 mps 756 mmHg 47%

    23 April, Tuesday

    Time Temperature Precipitation Wind Pressure Humidity
    00:00 +6°C° 0 mm 2 mps 755 mmHg 48%
    01:00 +6°C° 0 mm 2 mps 755 mmHg 49%
    02:00 +4°C° 0 mm 3 mps 755 mmHg 50%
    03:00 +4°C° 0 mm 3 mps 755 mmHg 51%
    04:00 +3°C° 0 mm 3 mps 754 mmHg 53%
    05:00 +3°C° 0 mm 3 mps 754 mmHg 54%
    06:00 +5°C° 0 mm 3 mps 754 mmHg 51%
    07:00 +7°C° 0 mm 3 mps 754 mmHg 47%
    08:00 +8°C° 0 mm 4 mps 754 mmHg 44%
    09:00 +10°C° 0 mm 4 mps 753 mmHg 40%
    10:00 +11°C° 0 mm 4 mps 753 mmHg 36%
    11:00 +12°C° 0 mm 4 mps 752 mmHg 32%
    12:00 +13°C° 0 mm 4 mps 752 mmHg 33%
    13:00 +13°C° 0 mm 4 mps 751 mmHg 33%
    14:00 +13°C° 0 mm 4 mps 751 mmHg 33%
    15:00 +13°C° 0 mm 3 mps 750 mmHg 34%
    16:00 +13°C° 0 mm 3 mps 750 mmHg 35%
    17:00 +13°C° 0 mm 3 mps 750 mmHg 36%
    18:00 +12°C° 0 mm 3 mps 750 mmHg 41%
    19:00 +13°C° 0 mm 2 mps 750 mmHg 45%
    20:00 +12°C° 0 mm 2 mps 750 mmHg 49%
    21:00 +10°C° 0 mm 2 mps 749 mmHg 52%
    22:00 +9°C° 0 mm 2 mps 749 mmHg 55%
    23:00 +8°C° 0 mm 3 mps 749 mmHg 57%

    24 April, Wednesday

    Time Temperature Precipitation Wind Pressure Humidity
    00:00 +8°C° 0 mm 3 mps 749 mmHg 57%
    01:00 +7°C° 0 mm 3 mps 748 mmHg 56%
    02:00 +7°C° 0 mm 3 mps 748 mmHg 56%
    03:00 +6°C° 0 mm 4 mps 748 mmHg 63%
    04:00 +5°C° 0 mm 4 mps 748 mmHg 70%
    05:00 +5°C° 0 mm 4 mps 748 mmHg 77%
    06:00 +6°C° 0 mm 4 mps 748 mmHg 72%
    07:00 +7°C° 0 mm 5 mps 748 mmHg 67%
    08:00 +9°C° 0 mm 6 mps 748 mmHg 61%
    09:00 +10°C° 0 mm 6 mps 748 mmHg 57%
    10:00 +11°C° 0 mm 7 mps 748 mmHg 53%
    11:00 +14°C° 0 mm 7 mps 748 mmHg 49%
    12:00 +14°C° 0.3 mm 7 mps 748 mmHg 49%
    13:00 +14°C° 0.3 mm 7 mps 748 mmHg 49%
    14:00 +14°C° 0.3 mm 6 mps 748 mmHg 49%
    15:00 +14°C° 0.1 mm 6 mps 748 mmHg 47%
    16:00 +14°C° 0.1 mm 5 mps 748 mmHg 45%
    17:00 +14°C° 0.1 mm 5 mps 748 mmHg 43%
    18:00 +13°C° 0 mm 4 mps 749 mmHg 45%
    19:00 +12°C° 0 mm 3 mps 749 mmHg 48%
    20:00 +12°C° 0 mm 2 mps 749 mmHg 50%
    21:00 +12°C° 0 mm 2 mps 749 mmHg 51%
    22:00 +12°C° 0 mm 2 mps 749 mmHg 51%
    23:00 +10°C° 0 mm 2 mps 749 mmHg 52%

    25 April, Thursday

    Time Temperature Precipitation Wind Pressure Humidity
    00:00 +10°C° 0 mm 2 mps 749 mmHg 56%
    01:00 +9°C° 0 mm 2 mps 749 mmHg 59%
    02:00 +8°C° 0 mm 2 mps 749 mmHg 62%
    03:00 +7°C° 0 mm 2 mps 749 mmHg 64%
    04:00 +7°C° 0 mm 2 mps 749 mmHg 65%
    05:00 +7°C° 0 mm 2 mps 749 mmHg 67%
    06:00 +8°C° 0 mm 2 mps 749 mmHg 62%
    07:00 +9°C° 0 mm 2 mps 749 mmHg 58%
    08:00 +12°C° 0 mm 2 mps 749 mmHg 53%
    09:00 +10°C° 0.2 mm 2 mps 749 mmHg 55%
    10:00 +10°C° 0.2 mm 2 mps 749 mmHg 57%
    11:00 +10°C° 0.2 mm 3 mps 749 mmHg 58%
    12:00 +10°C° 0.3 mm 3 mps 749 mmHg 58%
    13:00 +10°C° 0.3 mm 3 mps 749 mmHg 58%
    14:00 +10°C° 0.3 mm 2 mps 749 mmHg 58%
    15:00 +10°C° 0 mm 3 mps 749 mmHg 57%
    16:00 +10°C° 0 mm 3 mps 749 mmHg 57%
    17:00 +10°C° 0 mm 3 mps 749 mmHg 56%
    18:00 +9°C° 0 mm 3 mps 749 mmHg 61%
    19:00 +8°C° 0 mm 4 mps 749 mmHg 66%
    20:00 +7°C° 0 mm 4 mps 749 mmHg 72%
    21:00 +6°C° 0 mm 4 mps 749 mmHg 72%
    22:00 +6°C° 0 mm 4 mps 750 mmHg 72%
    23:00 +7°C° 0 mm 3 mps 750 mmHg 72%
    Show more